Theta_e
349 349 345 343 342 341 340 339 338 336 332 332 335 334 333 331 328 324 321 321 321 323 324 324 323 330 337 338 338 338 337 336 336 335 334 332 322 314 315 315 316 315 316 316 315 313 311 311 310 309 309 309 309 308 309 309 310 311 312 311 312 311 310 311 310 311 318 324 327 329 331 333 334 335 335 334 335 335 335 335 335 335 335 335 335
350 349 345 343 342 341 339 339 338 335 330 333 335 334 333 331 330 327 324 321 319 319 319 320 320 325 335 338 338 337 337 336 335 335 334 332 325 315 315 315 315 315 316 316 315 314 311 310 309 309 309 309 309 308 309 309 310 311 313 313 312 312 310 310 312 313 321 327 327 329 332 333 334 335 335 335 335 335 335 335 335 335 335 335 335
350 348 344 342 342 340 339 339 338 333 330 333 335 334 333 332 331 328 324 320 318 318 318 319 320 325 334 337 337 337 336 336 334 334 331 329 323 316 315 315 315 316 316 316 315 314 311 310 310 309 309 309 309 310 311 310 310 311 312 313 313 312 311 309 312 314 319 327 329 329 331 333 335 335 335 335 335 336 335 335 335 335 335 335 335
350 347 343 342 341 340 339 339 337 332 330 334 335 334 333 332 331 328 323 319 317 317 319 321 321 327 335 337 337 337 336 335 334 331 327 323 320 316 315 315 316 317 316 316 315 314 312 311 310 310 309 309 310 314 315 312 312 313 312 313 314 314 312 310 310 314 318 323 327 328 329 332 334 335 335 335 335 335 335 335 335 335 335 335 334
349 345 342 341 340 340 338 338 337 331 331 335 334 334 333 332 331 328 323 319 318 318 322 324 324 328 334 337 337 337 336 335 332 329 325 320 318 316 315 315 316 317 317 316 315 315 314 312 312 312 312 314 315 318 319 316 316 316 314 313 315 315 313 310 309 314 317 319 322 326 329 331 333 334 335 335 335 335 335 335 335 335 334 334 333
347 343 342 341 340 339 339 338 336 331 332 334 334 334 333 333 331 329 324 320 319 320 325 326 325 327 331 335 336 336 335 334 331 332 330 322 318 316 315 315 317 320 319 316 315 315 314 314 314 315 315 318 320 320 322 320 318 317 316 314 316 316 313 311 309 311 314 315 317 320 324 328 331 332 333 334 335 335 335 335 335 334 334 332 331
345 343 342 340 340 339 339 338 336 332 332 334 334 334 333 333 331 330 325 321 320 321 326 327 324 324 328 332 334 335 334 334 334 336 333 323 317 317 316 316 318 322 321 316 316 315 315 316 315 317 318 320 321 321 323 321 318 317 318 317 317 316 315 314 311 309 311 312 312 314 316 321 325 327 330 332 333 332 331 332 331 331 331 329 326
345 343 341 340 340 339 339 338 336 333 333 334 334 334 333 333 331 330 327 322 320 322 326 327 324 320 326 332 334 335 335 336 336 337 332 320 317 318 317 318 322 325 323 318 317 316 316 317 316 318 320 320 320 321 323 321 319 319 320 320 318 316 316 317 314 310 309 309 310 311 311 313 316 319 324 327 328 326 323 323 323 324 325 325 323
344 342 340 340 339 338 338 338 336 334 334 334 334 334 333 333 332 330 328 324 320 320 323 325 324 318 324 333 334 334 336 337 337 337 328 318 318 318 317 318 321 324 321 317 318 318 318 319 319 320 320 320 319 321 323 322 321 321 322 320 318 317 318 317 315 312 310 309 308 309 310 311 311 312 318 320 321 320 318 316 317 318 319 319 318
343 341 340 340 339 338 338 338 336 335 335 335 334 334 334 333 332 330 329 327 323 319 319 319 320 317 323 332 334 334 335 336 338 335 323 318 319 318 317 317 317 317 317 316 318 320 321 322 322 322 321 320 320 321 322 323 323 323 323 320 318 318 319 317 314 313 312 310 308 309 309 311 310 311 315 316 316 317 316 315 314 313 313 314 314
342 340 340 339 339 338 338 337 336 335 335 335 335 334 334 333 333 331 329 328 326 323 319 317 318 317 321 329 333 334 334 335 334 327 319 318 319 318 316 316 316 314 315 316 317 320 323 325 325 324 323 321 320 320 320 324 325 325 323 321 318 319 320 317 313 313 313 312 311 309 308 310 310 313 315 313 313 315 314 312 311 309 310 311 312
341 340 340 339 338 338 338 338 336 336 336 335 335 335 334 333 333 332 331 329 328 326 323 321 320 320 320 324 328 330 330 329 325 319 317 318 317 318 317 316 317 315 314 315 316 318 321 324 326 326 324 322 321 319 319 323 326 325 324 323 320 321 321 317 314 313 313 313 313 311 309 309 309 312 314 311 311 312 311 310 309 308 309 309 310
340 340 339 339 338 338 338 337 337 336 336 336 335 335 334 333 333 333 333 332 330 327 326 325 324 325 325 326 327 328 328 327 326 322 319 319 319 318 317 316 316 315 314 315 316 318 322 325 327 328 326 324 322 320 319 322 324 325 325 325 323 323 320 318 318 315 313 313 313 313 311 309 308 309 311 310 310 310 310 309 308 308 308 308 308
340 340 339 339 338 338 338 338 337 336 336 336 335 335 334 333 333 333 334 335 333 329 326 327 327 329 330 331 329 329 329 330 330 329 326 323 321 320 318 317 316 316 314 315 317 319 324 328 328 328 328 325 323 321 320 321 323 325 325 325 325 325 321 319 322 319 315 314 313 314 313 311 309 308 309 309 310 310 310 309 309 309 308 308 308
340 339 339 339 338 338 338 338 337 337 336 336 336 335 334 333 333 333 334 336 335 329 325 327 328 329 331 332 330 329 330 331 331 331 331 327 324 323 321 318 318 318 316 315 317 321 326 329 329 328 328 327 325 324 322 322 323 325 326 325 324 324 323 321 324 323 319 316 314 314 313 313 311 309 309 309 309 309 309 309 309 309 309 309 308
339 339 339 338 338 338 338 338 338 337 336 336 336 335 334 333 333 333 334 335 334 326 321 323 324 325 329 329 328 329 330 330 331 331 331 329 328 329 326 322 323 322 317 316 317 321 327 329 330 329 328 328 327 328 326 324 323 325 327 325 324 324 325 325 325 324 321 318 316 314 314 313 312 310 309 309 308 308 309 309 309 309 309 309 309
338 338 338 338 338 338 338 338 337 336 336 336 336 335 334 333 333 334 334 335 333 323 317 319 319 320 325 326 326 329 329 329 330 329 329 331 331 332 330 325 328 328 321 318 317 322 328 330 329 329 329 329 329 330 329 326 324 324 326 326 324 324 326 326 325 324 322 319 317 316 314 314 313 312 311 310 309 308 308 308 309 309 309 309 309
337 338 338 338 337 337 337 336 337 336 337 336 336 334 334 334 333 334 333 334 330 318 314 316 315 318 322 324 326 328 329 329 329 329 330 332 332 334 332 323 322 327 323 320 319 322 328 330 330 329 329 330 330 331 331 329 326 325 324 325 324 324 325 326 326 326 324 321 319 317 316 314 313 313 312 311 311 310 309 308 308 308 308 308 309
337 338 337 337 336 335 335 335 336 337 337 337 336 334 334 333 334 334 333 334 326 315 315 316 317 322 325 326 327 329 329 330 330 331 332 333 334 333 328 318 316 319 320 320 319 321 326 330 331 330 331 331 331 332 333 332 330 327 325 324 324 324 325 325 326 326 326 324 322 320 318 316 315 314 313 312 312 311 310 309 308 308 308 308 308
338 338 337 335 334 334 334 335 335 336 336 336 336 335 335 334 334 333 332 334 323 314 318 321 324 328 329 329 329 330 329 330 331 332 334 334 332 327 320 316 316 316 316 318 319 320 323 328 332 332 332 332 332 332 333 334 332 330 327 326 325 326 325 324 326 326 327 326 325 323 321 318 317 315 314 313 312 312 311 310 309 308 307 307 308
339 337 335 334 333 333 333 334 334 335 335 335 335 335 335 335 335 332 333 332 320 317 325 327 330 332 332 330 329 329 328 331 333 334 334 331 326 321 318 317 317 316 316 316 317 318 319 323 329 332 332 332 332 332 333 334 333 332 331 329 328 329 327 325 325 325 327 328 327 326 324 322 319 317 316 314 313 312 312 311 310 309 308 307 307
338 335 333 332 332 333 333 333 334 334 334 334 335 335 335 335 334 332 333 330 319 320 329 330 330 332 332 331 329 326 326 330 332 332 330 326 321 319 319 318 317 317 316 316 315 317 318 320 323 327 328 329 331 331 333 334 333 333 333 331 330 331 329 327 326 327 328 329 329 328 326 324 322 319 318 316 314 313 312 311 310 309 308 307 307
335 333 331 331 332 333 333 333 333 333 333 334 335 334 335 335 334 332 333 331 321 320 326 330 331 331 332 331 329 325 324 328 328 327 324 321 320 320 319 318 318 317 316 316 315 315 317 319 320 322 323 324 327 329 332 333 333 334 334 332 332 331 330 329 329 329 329 330 329 329 328 326 324 321 319 318 316 314 312 311 310 310 309 308 307
333 331 331 331 332 333 333 333 334 334 334 334 334 334 335 334 333 332 333 333 326 321 323 330 333 332 332 331 329 328 326 327 327 325 322 321 321 322 321 319 318 318 318 317 316 315 316 318 318 319 320 321 323 325 329 332 332 334 334 333 332 331 330 330 329 330 330 330 330 329 329 328 327 323 320 319 317 315 313 312 311 310 309 308 307
332 331 331 332 332 333 333 334 334 334 334 334 334 334 335 333 333 332 333 334 330 324 323 327 331 333 332 330 329 330 328 328 327 323 321 322 323 323 321 320 320 319 319 319 317 316 316 317 317 317 318 319 320 321 325 329 331 334 334 333 332 331 331 331 330 330 330 330 330 329 329 329 328 325 322 320 319 317 314 312 311 310 309 308 307
331 331 332 333 333 333 334 334 334 334 334 334 333 334 334 333 333 333 333 334 331 326 323 326 330 333 332 329 329 329 330 329 326 322 322 323 323 323 321 320 320 318 319 319 318 318 320 318 317 317 318 319 319 319 321 325 329 333 334 333 332 331 331 331 330 330 331 331 330 330 330 329 328 326 323 321 319 318 316 313 311 310 309 309 308
332 333 334 335 333 332 333 334 334 334 333 332 333 333 333 333 333 333 334 334 333 327 323 327 330 333 333 330 328 328 329 329 325 323 323 324 324 324 322 320 319 319 320 320 319 321 322 319 319 319 319 319 320 321 322 323 327 332 334 332 331 331 331 331 331 331 331 331 331 330 330 330 328 326 324 322 321 319 317 314 311 310 309 309 308
334 335 336 336 333 332 332 333 333 333 332 332 332 332 332 333 333 333 334 333 333 329 323 325 329 332 333 330 329 328 328 327 325 325 324 325 325 323 323 322 321 321 321 321 322 324 322 319 320 321 321 321 321 323 324 324 327 331 333 332 331 331 330 330 330 331 331 331 331 330 330 329 328 325 324 323 322 320 319 315 312 310 309 309 309
335 337 338 336 334 333 332 332 332 332 331 331 331 331 332 333 334 333 334 333 332 329 323 324 328 332 332 330 330 328 326 327 326 325 325 325 326 325 324 325 326 325 324 323 325 327 324 321 322 322 323 324 324 324 325 325 326 328 330 331 331 330 329 329 329 331 331 331 331 330 330 329 328 326 324 324 324 322 320 317 314 311 310 309 309
336 338 338 338 336 335 335 333 332 331 331 330 330 331 333 333 333 332 332 331 328 325 324 327 330 333 331 330 330 327 326 328 327 326 326 327 327 328 328 328 329 329 329 327 326 327 325 324 325 325 326 326 327 325 324 325 325 327 328 329 330 329 328 327 329 330 330 330 330 330 330 329 328 326 324 324 324 324 323 321 318 315 313 311 309
336 337 336 337 338 336 336 335 332 332 331 331 331 330 332 331 330 330 329 328 326 325 327 331 333 332 330 330 329 327 327 328 328 327 327 328 328 328 329 328 328 328 328 329 328 327 326 326 327 327 328 328 328 328 327 326 325 325 327 328 329 328 328 327 328 330 330 330 330 330 329 328 328 326 325 324 324 324 326 326 324 321 318 315 312
330 331 328 332 338 337 336 335 333 332 333 333 332 330 330 329 329 328 327 326 325 327 330 332 332 331 329 329 329 328 328 329 328 328 328 328 327 327 327 327 327 327 327 328 328 327 326 326 326 327 328 328 329 330 329 329 327 326 326 327 328 329 329 328 328 329 329 330 330 330 329 328 327 326 325 325 324 323 325 327 326 324 322 320 318
324 326 325 331 336 336 335 335 334 334 334 334 332 331 330 330 329 328 326 325 326 328 331 332 331 329 329 329 329 328 328 329 328 328 328 328 327 327 328 328 327 327 327 327 327 326 326 326 326 326 326 327 329 330 329 330 329 329 328 329 329 329 329 329 328 328 329 330 330 330 329 328 327 327 325 325 324 323 325 327 326 325 325 325 323
325 328 331 335 336 336 336 336 336 335 335 334 332 332 333 332 330 328 326 326 326 329 331 330 329 328 329 329 329 328 329 328 328 328 329 328 328 328 328 328 327 328 328 327 327 327 327 327 327 326 325 327 328 329 329 330 330 330 329 329 329 329 328 328 328 328 329 330 331 330 329 327 327 327 326 325 325 323 324 327 327 326 326 326 324
325 329 333 336 336 337 338 337 336 336 336 334 333 334 334 332 330 328 327 327 327 330 330 329 329 328 328 328 328 328 328 327 327 328 328 328 328 328 328 328 328 328 328 327 327 327 327 328 328 327 326 326 327 328 329 330 329 330 329 329 328 328 328 327 327 327 329 330 330 328 327 327 327 327 326 325 326 325 324 325 326 327 326 325 324
328 331 334 336 336 337 338 337 336 336 336 335 334 334 334 332 331 330 329 329 329 330 330 329 327 327 327 328 329 328 326 326 326 328 328 328 327 327 327 328 328 328 328 327 328 328 328 328 328 328 326 325 326 328 329 329 329 329 329 328 328 328 327 326 326 327 329 329 328 326 327 328 327 327 326 325 326 326 325 324 324 326 326 325 324
331 333 335 336 336 336 338 337 336 336 336 335 335 334 334 332 331 331 330 330 330 329 330 329 326 326 327 328 328 327 326 327 328 328 329 328 327 327 327 328 329 328 327 327 327 327 326 326 326 326 326 325 324 326 329 329 328 328 328 328 327 327 326 326 325 326 327 328 327 326 328 328 327 327 326 325 326 326 326 325 323 324 325 324 323
333 334 336 336 335 335 338 337 336 336 336 336 335 334 333 331 331 330 330 330 329 329 329 327 325 327 328 327 326 326 327 328 329 329 328 328 327 326 326 327 328 327 326 326 326 326 325 324 324 325 326 326 325 325 326 327 327 327 327 327 327 327 326 326 326 326 327 328 328 328 327 327 328 328 327 326 327 326 326 326 323 322 324 325 324
334 335 336 337 335 335 337 337 336 337 336 336 334 333 331 330 330 330 330 330 328 327 327 326 327 328 327 326 325 326 327 328 329 328 327 327 326 325 326 327 327 327 327 326 326 326 325 324 324 325 325 326 325 325 326 326 326 326 326 327 327 327 327 326 326 326 327 329 329 328 327 327 328 328 327 326 326 326 326 326 324 323 324 324 325
334 336 337 337 335 335 337 337 336 336 336 335 334 332 331 330 330 330 329 330 328 327 327 326 327 327 326 326 326 327 328 328 328 328 326 326 327 326 326 327 327 327 327 327 327 326 326 325 324 324 324 325 325 325 326 326 325 325 326 327 328 328 327 327 326 327 327 328 328 328 327 327 328 328 327 326 326 327 326 326 325 324 324 324 324
334 336 337 337 336 335 336 336 336 336 335 334 333 331 331 330 330 329 329 329 328 327 326 325 326 326 326 327 328 329 328 328 327 327 327 327 327 326 327 327 327 327 327 327 327 327 326 325 324 324 324 325 325 326 327 327 326 326 327 327 328 329 328 327 327 327 327 327 328 328 328 328 328 328 327 326 326 327 326 327 326 325 325 324 324
335 336 337 336 336 335 336 336 335 334 334 333 332 331 330 330 329 329 328 328 327 325 325 326 327 326 327 328 328 328 327 327 327 327 328 327 327 327 327 328 328 327 327 326 326 327 327 326 325 324 324 325 325 326 326 327 327 326 326 327 328 329 328 328 328 327 327 327 327 328 328 328 328 328 328 326 326 327 326 326 326 326 325 324 324
335 336 337 336 335 336 335 336 335 334 333 332 331 330 330 330 330 329 328 328 326 325 327 328 327 328 328 328 327 327 326 326 327 328 327 327 327 327 328 327 327 327 327 326 326 327 327 326 326 326 325 325 325 326 326 327 327 326 326 327 328 328 328 328 328 327 327 327 327 327 327 328 328 328 327 327 327 326 325 325 326 326 326 325 324
335 335 336 335 335 336 335 336 335 333 332 331 331 330 330 330 330 329 328 328 326 326 327 327 327 328 327 327 326 326 326 326 326 327 327 327 327 326 327 326 327 327 327 327 327 327 326 326 327 326 327 326 325 326 326 327 327 327 327 326 326 327 326 327 327 327 327 327 326 326 327 328 327 327 326 325 326 325 324 324 326 326 325 325 325
335 335 335 334 334 334 335 335 334 333 331 331 331 330 330 330 329 329 328 327 327 326 326 326 328 327 326 325 325 325 325 325 325 326 327 327 326 326 326 326 327 327 327 326 327 327 326 326 327 327 327 327 326 326 326 327 327 327 327 326 326 326 325 325 326 326 326 326 326 326 326 327 327 326 325 324 324 323 323 324 325 325 324 325 325
335 334 333 332 333 334 335 334 333 332 331 330 331 330 329 329 329 328 327 327 327 326 325 326 327 326 325 325 324 324 324 325 326 326 326 327 326 325 326 326 326 326 325 325 325 325 325 326 327 327 327 327 327 326 326 326 327 327 326 326 325 326 325 325 325 325 325 325 325 325 325 325 326 326 326 325 324 323 323 324 325 325 324 324 324
334 334 333 331 332 334 335 333 331 331 331 331 330 329 329 329 328 326 326 327 327 326 326 327 327 325 325 324 324 325 325 326 326 326 326 326 325 325 325 325 324 324 324 324 324 324 324 325 326 326 326 326 326 326 326 326 326 326 327 326 325 325 325 325 324 324 325 326 324 324 324 325 325 325 325 325 324 324 324 324 325 324 324 323 323
333 334 335 332 331 333 334 332 332 331 332 331 329 329 329 328 326 325 326 328 326 326 327 328 327 326 325 325 325 326 325 325 325 324 324 324 323 322 321 321 321 321 322 322 322 323 323 324 325 324 325 325 326 326 326 326 326 326 326 327 326 326 326 325 324 323 324 326 325 324 324 325 325 325 325 325 324 324 324 324 324 323 323 323 323
333 334 336 333 331 333 333 332 333 332 332 331 329 329 329 327 325 325 327 327 327 328 328 328 327 326 325 325 325 324 323 323 321 319 319 319 318 317 317 318 318 318 319 320 321 321 322 323 324 323 323 325 326 325 325 325 325 326 326 327 326 326 326 325 324 323 323 324 325 325 325 325 324 324 324 323 323 323 323 322 323 323 323 323 323
331 333 335 332 331 332 333 333 333 333 331 330 328 328 328 327 326 327 327 327 328 329 329 327 326 324 323 322 322 322 320 320 318 316 316 316 316 316 317 317 317 317 317 318 320 321 322 322 323 323 322 323 325 325 324 324 324 325 326 327 326 325 325 324 324 324 323 323 325 325 325 324 323 322 322 322 322 321 322 322 323 323 323 323 323
331 333 334 331 331 332 333 333 333 333 331 329 329 330 328 325 324 325 325 326 328 328 328 326 324 322 321 320 320 320 319 319 318 316 317 317 317 317 317 317 317 317 317 318 320 322 322 322 323 323 323 323 324 324 323 323 324 325 326 326 325 324 324 324 324 324 323 322 323 324 324 323 322 321 322 322 322 322 323 323 324 323 323 323 322
Wind_Speed
28 28 30 28 25 24 22 23 22 21 21 20 18 16 15 14 13 12 12 13 14 14 15 15 15 16 17 17 16 15 14 13 12 11 10 9 9 11 13 14 15 15 14 14 14 14 14 15 16 17 17 17 17 17 19 21 24 26 27 28 29 29 28 24 22 23 22 21 21 21 19 18 18 18 19 19 19 18 18 18 18 19 19 19 19
31 30 31 29 26 24 23 23 22 21 21 20 18 16 15 14 13 12 11 11 11 13 14 15 16 17 18 18 17 16 15 13 12 10 10 9 9 11 13 14 14 14 14 14 14 14 15 16 16 16 16 16 16 17 18 21 24 25 27 28 29 29 29 26 23 23 22 23 25 23 19 18 17 18 19 19 19 18 18 18 18 18 19 18 18
33 32 32 29 26 25 24 24 23 22 21 20 18 16 15 13 13 12 12 11 11 12 14 16 17 18 19 19 18 17 15 14 12 10 10 9 9 10 13 14 14 14 14 15 15 14 15 16 16 16 16 15 15 15 16 20 23 24 26 28 29 29 29 27 23 22 23 26 26 22 19 18 16 17 18 19 19 18 18 18 17 18 19 18 18
33 33 32 29 27 25 24 24 23 22 21 19 18 16 15 13 13 12 12 11 12 13 15 17 18 20 20 20 19 17 16 14 12 11 10 10 10 11 13 14 14 13 13 16 16 15 15 16 16 16 15 14 13 14 15 18 22 22 24 27 28 28 29 28 24 21 22 25 25 23 20 18 16 16 17 18 18 18 18 17 17 17 18 17 16
33 34 32 29 27 26 25 25 24 22 21 19 17 16 14 13 13 12 12 12 13 14 16 17 18 20 20 20 19 17 16 14 12 11 10 10 11 12 13 14 14 14 14 16 17 15 16 16 15 15 15 14 13 14 15 17 21 21 22 25 27 27 27 28 25 22 21 22 22 21 20 19 16 14 15 16 16 17 17 16 16 15 16 15 15
33 34 32 30 27 26 25 25 24 22 21 19 17 16 15 13 12 12 12 12 13 15 16 17 17 18 19 19 19 17 16 14 13 13 11 11 11 12 13 14 14 15 16 17 17 16 16 15 15 15 15 14 13 13 14 16 20 21 21 23 25 26 27 26 25 22 19 18 17 16 17 18 16 13 14 15 15 14 14 14 13 13 13 13 13
32 33 32 30 27 26 26 25 24 23 21 19 17 16 15 14 12 12 12 12 13 15 16 16 16 17 19 19 18 17 16 14 14 14 13 12 11 12 13 14 16 16 18 19 18 17 16 15 15 15 15 14 13 12 14 18 21 21 22 23 24 25 26 26 25 22 19 17 15 13 12 14 14 13 13 13 13 13 12 12 11 10 10 10 11
31 32 31 29 27 26 26 26 25 23 22 19 17 16 15 14 13 12 12 13 13 15 16 16 16 17 19 18 17 16 16 15 15 14 13 12 11 12 13 14 16 17 18 19 18 17 15 15 15 15 14 13 13 12 16 20 21 21 22 22 23 24 25 25 24 22 20 18 17 14 11 11 12 12 12 11 10 10 10 9 8 8 8 8 8
30 31 30 28 27 26 27 26 25 23 22 19 18 16 15 14 13 12 12 13 13 15 15 16 17 18 20 18 17 17 17 17 16 14 14 13 12 12 12 14 16 17 19 19 18 17 16 16 16 15 13 12 12 13 17 20 20 20 21 21 22 23 24 24 23 22 20 19 18 17 14 12 11 12 12 10 8 8 8 7 7 6 6 7 7
30 30 29 27 27 27 27 25 25 23 22 19 17 16 15 14 14 13 12 13 13 14 15 15 16 19 21 19 18 18 18 18 16 14 14 14 14 13 13 15 16 17 20 20 18 17 17 17 16 15 13 12 12 12 16 19 20 19 20 20 21 22 22 22 23 22 21 20 19 18 16 14 13 13 12 10 9 8 7 6 6 6 6 7 8
29 30 28 27 27 27 26 25 25 23 21 19 17 17 16 15 14 14 13 12 12 13 13 14 15 17 19 19 18 18 17 17 16 14 14 14 14 14 14 15 17 18 20 20 18 18 18 17 16 15 14 12 11 11 16 18 18 18 18 19 19 20 21 22 22 22 21 20 20 18 17 15 15 14 13 11 10 8 7 8 8 8 8 8 8
30 30 28 27 27 26 26 25 24 22 21 19 18 17 16 15 14 14 13 12 12 12 13 13 15 15 16 16 17 16 15 14 13 13 13 13 13 14 14 16 16 17 19 20 18 18 18 18 16 15 14 12 11 10 14 17 16 16 17 17 18 18 20 21 21 21 20 20 19 18 17 16 16 15 13 13 12 10 11 12 12 11 10 9 9
31 29 29 28 27 27 26 24 23 22 20 19 18 17 16 15 14 14 13 12 11 11 12 12 13 14 13 13 14 14 13 12 11 10 10 11 12 13 14 16 17 17 19 20 19 19 19 18 17 15 13 12 11 9 10 14 15 14 15 15 16 17 18 20 20 20 19 19 18 18 17 16 16 15 14 15 14 13 15 15 14 13 12 12 11
31 30 29 29 28 27 25 24 23 22 20 19 18 17 16 15 14 14 12 11 10 10 11 12 12 12 12 11 12 13 13 12 11 10 9 10 10 11 13 15 17 18 19 20 20 20 20 19 17 16 14 12 10 8 7 10 13 13 13 13 14 15 16 18 19 19 19 18 17 16 16 16 16 15 15 15 15 15 15 16 15 15 14 14 14
31 30 29 29 28 27 25 24 23 21 20 19 18 17 16 15 14 13 12 11 10 10 11 12 12 12 12 12 12 13 13 13 12 11 10 9 9 9 11 13 16 19 20 21 21 21 21 20 18 16 14 12 10 8 7 7 9 11 12 12 13 14 15 16 17 17 18 17 16 15 14 15 15 15 15 14 14 14 14 15 15 15 15 15 15
31 30 30 30 29 27 25 24 22 21 20 19 18 16 16 14 13 12 11 10 9 9 10 11 12 13 14 13 13 13 12 12 12 11 10 9 9 9 9 11 14 18 20 21 22 22 22 21 19 17 15 13 11 10 8 7 7 8 10 11 11 12 14 14 15 15 16 17 16 14 13 14 14 14 13 13 13 13 13 14 14 14 14 15 15
30 29 30 30 29 27 26 24 22 21 19 18 17 16 15 14 12 11 10 9 8 8 9 11 12 13 13 13 14 13 12 11 11 11 10 10 10 10 9 8 11 15 18 21 22 23 23 22 20 19 16 14 13 11 9 7 7 6 8 9 10 11 12 13 13 13 15 15 15 14 13 13 13 13 12 12 12 12 12 12 12 12 13 13 14
29 29 30 28 28 26 25 24 22 21 19 18 17 16 15 14 12 11 10 8 7 7 9 10 11 12 13 14 14 13 12 12 12 11 11 11 11 11 8 6 8 11 15 20 22 24 25 23 22 20 18 16 14 13 11 9 8 7 7 7 8 9 10 11 11 11 13 13 13 13 13 12 12 12 11 11 11 11 11 11 11 11 11 12 13
28 28 28 27 27 26 25 23 22 21 20 19 18 17 15 14 13 11 10 7 6 8 9 10 11 13 13 14 14 13 12 12 12 12 12 12 11 10 8 6 8 10 12 18 21 23 25 25 24 22 20 18 16 14 13 11 9 8 7 7 7 7 8 9 9 10 10 11 12 12 12 12 11 11 10 10 10 10 10 10 10 10 10 10 11
26 26 27 26 26 25 25 23 23 21 20 20 18 18 15 14 13 11 9 7 7 8 9 10 12 13 13 14 13 12 12 12 12 12 12 11 10 8 7 7 9 11 12 16 20 22 24 26 25 24 22 19 17 15 14 12 10 8 7 7 7 7 7 6 7 8 8 9 10 10 11 11 11 11 9 8 9 9 9 10 10 9 9 9 9
23 25 26 26 26 25 25 24 23 23 21 21 19 18 16 15 13 12 10 8 8 9 10 11 12 13 13 13 12 12 11 11 12 12 11 10 8 6 7 8 10 12 12 15 19 20 23 25 25 24 22 20 18 16 15 13 10 8 7 7 6 7 6 6 5 6 6 7 8 8 9 10 10 10 9 8 7 7 7 9 9 9 8 8 8
23 25 27 27 27 26 26 25 24 23 22 21 19 18 17 16 15 13 12 11 11 11 11 11 12 12 11 11 11 11 11 11 11 10 9 8 8 7 8 9 10 12 12 14 17 19 21 23 24 24 22 20 18 17 15 13 11 9 7 7 6 6 6 6 5 5 5 6 6 7 8 9 9 9 9 7 6 5 6 6 7 8 8 8 8
25 26 27 28 28 27 26 25 25 23 22 21 19 18 18 17 16 14 13 13 12 11 11 10 11 10 10 10 11 11 11 12 11 9 8 9 9 9 10 10 10 11 11 13 15 18 20 22 23 23 22 20 19 17 16 14 12 10 8 7 7 6 6 6 6 5 5 5 5 6 7 8 9 9 8 8 6 5 4 5 6 6 7 7 7
26 27 28 29 28 27 26 25 24 22 21 20 19 18 18 18 17 16 15 13 12 11 10 10 10 10 10 11 12 12 12 12 11 10 9 10 10 10 10 10 10 9 9 10 13 15 17 19 21 21 21 20 19 18 16 15 13 11 9 8 7 6 6 6 6 6 5 5 4 5 7 8 9 9 9 8 8 6 4 3 4 5 5 6 6
25 26 27 28 27 26 25 24 23 21 21 20 19 18 18 17 17 17 15 13 11 11 10 9 9 10 11 11 12 13 12 12 11 10 10 10 10 10 9 9 8 8 8 9 10 12 14 16 17 18 18 18 18 17 16 16 14 13 10 8 7 7 7 7 6 6 5 5 4 5 7 9 9 10 10 9 8 7 5 3 3 3 4 4 5
25 26 26 25 26 25 24 24 23 22 20 19 19 18 18 17 17 16 15 13 12 12 11 9 8 10 12 12 13 13 12 11 10 10 11 11 9 9 9 8 8 7 8 9 9 10 12 14 14 14 15 15 16 16 16 15 15 13 11 8 7 6 6 6 5 5 5 4 4 5 7 8 9 9 8 7 7 7 5 3 2 2 3 3 3
27 25 25 24 25 26 25 24 22 22 21 20 20 19 18 17 17 16 14 13 13 12 12 10 8 10 13 12 12 12 11 10 10 10 11 10 8 8 8 8 8 7 7 7 8 10 12 12 12 13 13 13 13 13 14 14 14 13 11 8 6 6 6 5 4 4 4 4 3 4 5 6 7 7 6 6 5 5 4 3 2 2 3 2 3
27 26 25 24 25 27 26 25 23 21 21 20 20 19 18 17 16 15 14 13 13 13 13 12 9 10 14 13 12 11 11 10 9 9 9 9 9 9 8 8 8 7 8 7 7 11 11 9 10 11 11 11 11 11 11 11 12 12 11 8 6 6 5 4 4 3 3 3 2 3 4 4 5 5 5 5 4 4 4 3 2 2 3 3 2
24 23 23 25 25 26 27 26 24 22 20 20 19 18 18 17 16 14 14 13 13 13 13 11 10 12 15 14 12 11 11 10 9 8 9 10 11 10 8 8 8 7 7 7 8 10 9 8 8 8 9 10 10 10 10 10 11 11 11 9 7 6 4 4 3 2 2 1 1 1 2 3 3 4 4 4 4 3 3 3 2 2 3 3 3
20 19 21 25 27 27 28 26 24 21 19 19 18 18 18 17 16 14 14 13 13 12 11 10 11 14 17 14 12 12 11 10 9 9 9 10 10 10 9 8 7 6 6 7 8 8 7 7 6 7 8 9 9 9 9 10 10 11 11 10 8 6 4 4 3 2 2 1 1 1 2 2 3 3 3 4 3 3 4 4 3 2 2 3 3
17 18 18 23 28 29 29 26 23 20 19 18 17 17 17 16 15 14 13 12 12 10 9 10 13 15 16 14 13 12 11 11 10 9 9 10 10 10 9 9 7 7 8 8 9 7 7 6 6 7 7 8 9 9 9 9 9 10 11 10 8 6 4 3 2 2 2 2 1 1 1 1 2 2 2 3 4 4 4 4 4 5 3 2 1
16 15 13 21 30 31 29 25 22 20 19 18 17 17 16 15 14 13 12 12 11 8 7 11 14 14 14 15 14 12 11 11 11 9 9 9 9 9 9 9 8 8 8 9 8 7 7 7 7 7 7 8 8 9 9 8 9 9 10 9 7 5 4 3 2 3 3 3 2 1 0 1 1 1 1 2 4 5 5 1 4 6 5 4 3
26 20 20 27 32 32 28 23 20 19 18 16 16 15 14 14 13 13 12 12 11 7 8 12 13 13 14 15 13 12 12 11 10 9 9 8 8 8 7 8 8 8 8 8 8 8 7 7 7 7 7 7 8 9 8 8 9 9 9 8 6 5 4 4 4 4 4 4 3 2 3 2 1 1 0 1 3 5 5 3 3 4 4 4 6
31 29 29 32 32 30 25 21 21 20 17 15 15 14 14 14 13 13 12 12 11 8 10 13 12 13 13 14 13 12 11 11 10 9 8 8 7 6 5 6 7 7 8 8 9 8 8 7 7 6 5 6 7 8 8 8 8 8 8 7 7 6 5 5 5 6 5 5 5 4 3 3 2 2 1 1 1 3 4 4 3 2 2 3 6
27 27 28 30 29 27 23 21 22 19 16 15 14 13 13 13 13 12 12 12 11 9 12 14 13 13 13 13 13 12 11 10 10 9 8 7 6 6 5 5 6 6 7 8 9 8 8 8 7 5 4 5 6 7 8 7 6 6 7 7 7 7 6 5 6 7 7 7 6 3 3 4 3 3 2 2 1 2 3 4 6 5 2 2 3
24 25 27 29 26 22 21 22 22 18 16 15 14 14 13 13 13 11 11 11 10 11 14 14 13 14 13 12 13 12 11 9 8 9 8 7 6 6 6 5 5 5 5 6 7 7 7 7 7 6 5 5 6 7 8 7 6 6 6 6 7 7 6 6 6 7 8 8 5 4 6 5 4 3 3 3 2 2 3 4 6 7 4 3 4
24 25 26 26 22 19 20 21 21 18 17 16 15 15 14 13 12 10 10 10 10 13 16 15 14 14 13 12 12 11 10 9 9 8 8 8 7 7 7 6 4 4 5 6 6 7 7 6 6 6 6 6 6 7 7 7 6 6 6 6 6 6 6 7 7 7 8 8 6 7 9 7 5 5 4 5 4 2 3 3 4 6 6 6 6
25 25 25 24 19 17 19 20 20 18 17 17 16 15 15 14 12 10 11 11 12 13 16 16 15 14 13 12 12 12 11 10 9 8 8 8 8 7 7 5 4 4 5 5 6 6 6 6 6 6 7 7 6 6 6 6 7 6 7 6 6 6 7 7 7 7 8 8 8 9 8 7 8 6 5 7 5 4 4 2 3 6 6 7 7
25 25 25 24 19 17 20 20 19 19 18 17 17 16 15 14 12 11 12 13 15 15 15 15 14 14 13 12 11 11 11 9 8 8 7 7 7 7 6 5 5 5 5 5 5 6 5 6 6 6 6 7 7 6 6 6 7 7 7 7 7 6 6 6 6 7 7 8 9 8 6 8 10 8 7 8 7 6 6 3 3 6 6 6 6
26 25 25 25 20 18 21 21 20 19 19 19 18 17 16 15 14 13 13 15 16 15 14 14 13 13 13 12 11 10 10 9 8 8 8 7 7 7 7 6 6 6 6 6 6 6 6 6 7 6 6 7 7 6 6 6 7 8 8 8 8 7 7 7 7 7 7 8 9 6 6 9 9 9 8 8 8 8 6 4 4 6 6 6 6
27 26 24 24 21 18 20 22 20 19 20 20 19 18 17 16 15 14 14 15 17 16 14 13 13 13 13 12 10 9 8 8 8 9 8 8 8 8 7 7 8 8 8 8 7 7 7 7 7 7 7 7 7 7 7 7 8 9 10 9 9 9 8 7 7 7 7 7 8 6 6 8 8 8 8 7 7 6 4 4 3 5 6 6 6
28 26 25 23 21 18 19 21 20 19 19 20 20 19 17 14 13 12 13 14 16 16 12 12 12 12 12 11 10 9 8 8 8 8 8 8 8 8 7 8 8 9 8 8 8 8 8 7 7 7 7 7 7 8 9 9 9 10 9 10 10 9 8 8 7 7 7 7 6 6 5 5 5 7 7 7 7 5 3 2 3 4 3 4 5
27 26 24 22 21 19 19 21 20 19 20 20 19 17 14 12 11 10 11 13 16 14 11 11 11 11 11 10 9 8 8 8 8 9 9 8 8 7 7 8 9 9 8 8 8 8 8 8 7 7 7 8 8 9 10 10 10 9 8 9 9 9 7 7 8 7 6 6 6 5 3 2 2 3 4 5 6 5 3 1 1 2 2 2 2
25 23 22 21 21 19 20 22 21 19 20 20 18 16 14 12 11 10 11 13 15 14 11 11 10 10 10 9 9 9 9 8 8 10 10 8 8 8 8 9 10 10 9 8 8 8 8 7 8 7 7 7 8 9 10 10 9 8 8 7 8 8 6 6 7 6 6 5 3 2 3 2 1 2 2 3 4 4 3 1 0 1 1 1 1
24 22 20 21 20 20 20 21 21 20 20 20 18 16 14 13 13 12 13 16 16 14 12 11 11 10 10 10 10 10 9 9 9 10 10 8 8 8 8 8 9 9 8 8 7 7 7 7 8 7 7 7 7 8 10 10 9 8 7 5 5 6 6 8 7 5 5 5 2 1 3 3 1 1 2 2 2 3 2 2 1 1 1 1 0
23 19 17 18 18 19 21 21 21 21 21 20 18 17 15 13 13 13 15 18 17 14 11 10 10 11 11 11 10 10 9 9 9 9 9 9 8 7 7 8 8 8 7 6 6 6 5 6 7 8 8 8 6 7 9 11 10 10 9 6 4 3 4 10 9 7 6 4 4 4 3 3 4 4 4 3 3 3 3 3 4 3 3 3 3
19 16 15 17 18 18 21 23 22 21 22 20 18 18 16 13 12 11 13 16 14 12 11 10 10 11 11 11 10 10 10 9 9 9 9 9 8 7 8 7 7 7 6 5 5 5 5 6 7 8 8 8 8 8 8 10 11 12 12 10 7 4 3 6 8 8 10 9 5 5 6 5 6 7 6 6 5 5 5 6 7 7 6 6 6
17 15 16 18 18 19 22 23 22 22 21 19 19 18 15 13 12 11 12 13 12 11 12 12 12 12 12 12 11 11 10 9 8 8 9 9 8 8 8 7 7 7 6 7 6 6 6 6 7 7 8 8 8 8 8 10 11 11 12 12 10 6 4 4 5 5 11 16 10 7 9 8 7 8 8 7 6 6 7 8 8 8 7 7 8
16 16 17 20 17 19 23 24 23 23 21 18 18 17 15 13 11 11 13 13 12 12 13 14 14 13 13 12 12 11 11 10 9 9 9 9 9 9 8 8 8 7 7 8 8 7 6 7 7 7 8 8 8 8 8 9 9 10 11 11 10 7 5 6 6 6 11 16 15 13 12 9 9 10 9 9 9 9 10 11 11 10 10 10 11
16 17 19 21 17 19 24 25 23 22 20 18 18 18 16 13 11 12 13 14 14 14 15 16 15 15 14 14 13 12 11 11 10 10 10 10 10 10 9 8 8 8 8 8 9 7 7 8 7 7 7 7 7 8 8 7 8 9 10 9 8 8 7 9 9 8 11 15 17 17 13 9 9 12 12 12 12 13 13 13 13 13 13 14 14
17 18 21 21 17 19 22 24 23 22 20 20 20 18 14 11 11 13 12 13 15 15 16 17 17 16 15 14 13 12 11 9 8 9 10 10 10 9 8 6 5 6 6 7 8 7 7 7 7 7 7 6 6 7 7 7 7 9 9 8 7 7 7 8 8 10 11 13 18 18 13 10 12 14 14 14 14 14 15 15 15 15 16 16 15
Wind_Direction
168 169 168 169 169 169 171 169 166 162 158 156 152 151 149 147 147 148 152 158 165 168 169 167 166 163 160 162 164 160 157 155 149 142 136 131 125 128 131 127 125 121 118 113 110 108 108 111 108 107 106 105 103 99 98 93 89 84 79 75 71 69 72 77 86 98 103 99 103 108 108 99 87 88 91 91 91 93 95 93 94 94 93 92 92
166 168 167 168 168 169 171 167 165 160 158 157 153 151 148 146 144 145 149 156 165 169 171 171 170 167 164 163 165 162 158 156 152 147 141 138 135 135 137 133 129 128 123 118 116 113 111 111 109 109 108 108 105 100 98 94 91 86 79 75 72 70 71 76 86 93 100 105 108 111 108 98 87 86 89 91 92 93 94 94 95 94 92 92 91
163 166 166 166 168 170 169 166 164 160 159 157 154 152 148 145 141 142 144 151 161 166 169 169 170 167 165 164 165 164 160 156 152 149 145 143 145 142 142 139 136 135 128 123 122 118 114 112 112 112 112 111 108 104 101 96 94 88 81 77 73 71 71 75 83 87 97 109 113 113 109 102 92 87 89 92 93 93 92 93 94 92 91 91 89
163 163 164 166 168 169 167 166 162 159 160 158 156 153 149 144 140 140 140 146 156 163 165 166 167 167 165 164 165 164 162 157 152 151 149 150 153 149 147 147 141 137 128 126 128 124 119 117 117 116 116 114 112 109 105 100 93 86 81 78 75 73 72 74 81 88 96 106 114 117 116 109 100 93 90 90 93 93 92 92 91 89 89 88 87
163 162 164 165 166 168 166 165 161 160 160 158 158 153 150 145 140 139 137 142 152 160 161 162 165 167 168 166 165 164 163 158 151 150 152 157 159 154 153 151 143 136 129 129 132 129 125 123 123 121 120 118 116 113 112 107 92 82 79 79 77 74 73 73 79 91 98 102 108 115 119 117 110 105 99 95 94 93 93 92 90 88 88 88 86
163 163 165 165 165 166 166 165 161 160 161 160 159 154 151 147 143 138 134 136 146 157 159 160 161 165 168 167 165 162 161 158 150 146 152 163 163 160 156 151 141 135 132 134 136 133 131 129 128 125 123 122 118 114 116 106 88 82 82 81 79 75 74 73 76 86 96 97 99 106 115 121 122 122 117 107 102 99 96 94 93 91 90 90 88
164 164 165 166 165 164 165 164 161 161 162 162 160 156 154 149 144 136 131 131 137 151 158 160 157 159 163 163 162 159 157 154 152 149 159 169 165 164 159 151 139 132 133 136 139 137 136 134 131 128 126 124 119 114 106 94 87 87 85 82 80 77 74 72 72 79 88 88 88 95 103 116 124 129 132 123 112 112 111 108 105 100 96 94 90
166 166 165 166 165 164 164 163 162 163 163 163 162 158 156 150 145 137 131 131 135 145 155 159 157 155 155 155 156 156 155 151 153 159 169 169 165 164 156 149 139 132 136 139 140 140 139 135 132 130 128 124 119 111 98 92 91 90 87 84 82 79 75 72 71 73 79 78 77 79 85 101 110 115 129 131 115 109 111 110 106 102 101 96 89
167 165 165 166 165 164 163 163 163 165 165 164 162 159 157 152 148 144 137 135 138 144 152 158 158 155 150 150 154 155 156 155 156 166 174 167 165 163 150 145 139 137 141 142 141 141 139 134 133 131 129 124 118 109 98 95 94 90 87 85 83 81 76 72 70 70 72 73 71 69 72 84 93 102 117 125 113 101 96 92 93 99 103 101 94
168 164 165 166 165 164 163 163 165 166 165 163 162 160 158 156 153 151 145 140 141 144 150 156 157 157 152 149 154 156 159 159 161 170 170 163 162 155 145 139 137 140 144 144 143 141 138 135 135 134 132 125 119 111 103 101 98 92 87 85 84 82 76 73 71 69 68 69 67 65 66 73 82 92 102 108 108 104 95 86 89 99 104 102 100
167 165 166 166 165 164 163 165 167 166 164 163 162 162 160 160 159 155 152 146 144 145 147 151 153 156 155 152 155 158 161 165 169 170 163 159 155 148 143 137 137 142 145 146 145 142 139 138 138 136 133 128 121 113 107 104 100 95 90 86 85 83 77 75 72 69 68 67 65 63 63 68 74 79 87 94 99 100 92 85 84 90 97 100 101
167 166 166 166 165 163 165 167 168 167 166 166 164 163 164 164 162 158 156 152 147 147 146 146 147 149 150 151 155 156 157 162 165 162 157 156 151 148 144 139 139 143 147 149 147 144 143 141 140 137 135 131 125 117 111 106 101 97 93 88 86 82 78 77 74 71 69 67 65 62 62 66 71 73 76 83 90 90 83 81 83 87 91 94 98
167 166 167 165 164 164 167 168 169 170 169 168 167 166 168 167 163 161 160 157 148 147 148 147 146 145 145 146 149 149 146 143 143 144 149 154 152 152 148 144 142 142 148 151 149 146 145 143 142 141 139 136 130 124 114 108 105 101 97 91 87 81 81 80 74 73 72 68 66 63 60 62 69 72 72 75 80 82 79 79 82 84 87 90 93
167 167 167 165 164 166 168 169 170 171 171 171 170 169 169 169 167 165 163 160 150 146 149 149 147 145 146 148 149 147 142 139 140 141 143 148 148 150 150 148 145 145 150 154 153 149 148 147 146 146 145 143 137 131 119 109 108 106 102 96 90 83 84 83 75 73 73 71 69 66 62 60 64 71 72 72 74 78 80 81 82 84 85 87 88
170 167 166 165 165 167 169 170 172 173 175 174 172 170 171 173 171 167 162 158 152 148 148 150 149 146 147 151 151 146 145 147 148 148 147 142 136 138 142 146 146 146 152 156 157 154 153 151 151 152 151 151 147 144 137 119 112 108 105 100 91 87 88 87 78 73 72 72 71 69 68 65 63 66 70 70 71 76 80 82 83 84 84 85 85
172 167 165 167 167 167 169 170 173 175 177 176 173 173 174 177 173 165 160 156 152 150 149 151 153 151 151 154 150 147 152 153 151 151 148 139 128 126 129 138 144 146 151 157 160 159 157 156 156 157 158 160 159 158 157 141 124 111 106 103 96 91 93 90 82 77 73 72 72 70 71 70 65 64 66 67 68 72 77 81 83 85 85 86 85
171 168 167 169 168 168 169 171 174 176 178 177 175 176 177 177 172 166 163 160 153 150 150 149 152 153 153 154 150 150 156 154 150 148 145 141 134 134 134 133 144 149 152 157 162 163 162 161 161 163 165 169 170 168 168 159 144 128 113 107 102 97 96 93 87 82 78 75 75 73 71 70 68 65 63 65 66 67 70 77 82 85 86 86 86
170 169 170 169 169 169 170 172 175 176 178 178 178 178 179 178 172 169 169 166 153 146 147 146 148 150 149 151 151 153 156 155 151 149 146 145 143 148 151 141 151 157 155 159 164 166 166 166 166 169 172 176 179 175 172 173 166 153 135 119 109 104 101 98 95 89 84 80 78 76 74 72 69 66 60 60 62 63 64 69 74 77 81 83 85
168 169 170 171 171 172 173 175 176 178 181 180 181 179 180 180 174 173 171 162 148 145 148 147 143 140 142 148 150 151 156 157 154 153 149 148 149 153 164 158 160 165 159 160 166 169 169 170 172 173 176 180 184 183 177 178 180 169 153 139 125 117 108 104 103 97 91 85 80 77 75 73 69 67 61 56 57 60 60 61 66 69 71 76 83
165 169 171 174 174 174 176 178 179 181 184 184 185 181 178 180 176 174 169 157 153 152 149 145 142 140 145 148 149 152 158 161 159 158 150 148 151 153 167 165 161 162 157 157 164 172 174 174 176 177 179 182 187 189 182 180 185 180 165 151 140 133 123 116 111 105 98 91 86 80 78 76 70 68 64 57 53 54 54 56 60 63 65 70 77
163 171 174 176 177 178 180 181 183 184 187 188 190 184 177 179 178 176 169 161 161 157 151 148 150 152 153 152 153 158 162 158 153 156 150 146 149 148 161 160 155 154 153 153 159 170 177 179 180 181 182 184 190 193 187 182 186 186 173 160 150 142 137 136 127 111 104 97 91 87 83 78 72 67 62 58 52 50 53 55 56 56 58 62 70
166 173 177 179 180 182 184 186 187 187 189 191 192 187 181 180 180 179 172 168 170 164 159 158 161 163 158 153 155 160 163 155 149 153 150 144 143 147 155 153 149 148 151 154 156 163 173 181 184 186 186 187 192 197 192 185 188 191 181 170 162 151 146 145 136 117 106 98 94 92 87 81 76 70 63 60 56 52 56 56 58 58 55 55 61
171 175 178 183 185 185 187 190 190 190 191 192 192 191 187 183 182 182 178 177 179 174 167 165 169 170 161 152 149 150 152 151 149 152 148 144 144 148 149 146 146 147 153 157 155 158 166 177 185 189 190 190 194 198 198 191 190 192 188 182 172 161 152 143 134 120 105 94 89 88 83 77 71 69 64 61 59 58 60 62 63 62 59 55 55
172 177 182 186 188 189 191 192 193 193 193 194 194 193 190 187 187 185 185 184 185 182 174 171 173 172 166 158 152 147 147 147 146 147 144 147 147 143 142 140 143 144 148 151 153 157 161 170 179 187 191 193 195 199 200 196 193 192 191 189 177 163 151 140 130 118 106 88 78 74 71 65 60 61 61 58 56 55 56 67 71 65 66 63 59
173 180 186 190 190 191 195 195 195 195 195 197 195 193 192 193 192 189 190 188 189 191 183 178 179 178 173 168 162 152 148 147 144 147 145 146 143 130 128 128 130 132 133 139 146 152 156 160 168 178 186 192 196 200 201 200 197 192 190 188 178 166 153 142 131 120 108 88 70 63 59 54 50 51 53 54 53 53 52 63 81 74 76 71 69
177 185 188 194 195 194 199 199 198 197 197 199 196 195 195 196 195 192 192 189 194 198 193 190 187 184 180 176 171 159 152 151 150 154 147 140 134 124 121 119 121 121 124 132 136 146 152 153 157 165 174 184 193 200 203 202 198 192 187 183 179 174 162 151 140 126 110 93 74 62 57 50 47 45 45 50 59 63 63 74 112 111 108 99 91
179 187 192 197 199 198 202 203 201 199 198 198 197 198 197 197 197 194 194 195 199 203 203 200 193 188 185 182 177 165 158 155 155 157 148 139 135 131 127 121 123 119 121 127 132 146 150 148 151 157 164 173 184 194 200 202 198 191 188 183 179 181 176 165 152 133 115 101 80 67 63 56 52 45 36 37 52 64 70 96 143 153 151 140 123
182 185 193 200 203 203 204 206 205 202 199 196 196 198 198 197 197 195 195 198 202 207 210 208 204 192 186 184 178 168 162 154 151 153 147 143 138 132 129 125 124 123 128 135 147 155 149 143 148 153 160 169 177 185 192 197 196 192 191 191 190 190 191 187 171 144 122 103 80 65 64 64 58 49 34 29 35 46 66 99 139 158 162 159 151
188 186 193 202 207 208 207 208 206 203 200 196 196 197 197 196 196 197 197 200 205 210 214 216 219 197 183 181 174 167 162 152 149 152 146 143 139 134 136 137 136 134 138 150 164 163 149 142 149 153 162 171 177 181 186 190 192 192 192 198 202 198 201 209 200 159 136 118 87 51 57 67 64 53 35 32 31 25 50 83 111 143 161 161 162
192 187 193 204 209 212 210 209 205 201 199 197 198 195 195 197 196 199 201 204 208 209 219 228 220 192 177 175 169 163 161 154 150 153 151 146 141 141 145 150 156 159 163 170 177 176 163 156 159 163 170 177 184 188 190 189 190 193 195 202 209 208 209 217 210 163 148 149 125 42 47 59 68 61 35 37 35 17 28 44 61 73 125 163 166
193 195 198 206 209 213 212 207 202 199 198 198 198 196 196 198 197 200 201 204 205 209 226 216 193 176 170 170 167 164 161 157 154 156 159 153 146 147 153 160 170 179 184 185 184 182 178 177 177 176 180 184 190 194 194 192 192 195 200 207 214 216 216 218 210 170 166 178 180 70 47 42 81 76 37 38 30 37 47 20 16 31 52 115 153
173 192 205 209 208 212 212 206 200 197 196 195 194 194 195 195 197 199 197 198 199 209 218 188 168 165 168 168 168 169 163 159 158 161 165 156 151 157 165 171 179 187 192 193 188 183 183 183 182 181 186 187 188 191 191 191 193 197 202 207 210 211 214 214 201 186 191 205 208 167 196 248 139 101 51 51 25 54 95 58 355 8 36 63 42
169 184 202 207 206 210 210 202 198 196 194 192 189 190 191 192 194 195 193 194 196 204 195 172 162 168 172 171 172 171 166 164 163 166 170 163 161 167 172 179 184 191 196 199 196 190 187 185 183 184 185 182 181 184 186 189 195 200 203 208 209 206 211 213 206 201 204 212 208 185 194 222 197 170 143 90 28 59 103 102 29 8 34 52 25
185 196 203 203 205 207 203 197 196 194 192 189 186 188 190 191 191 191 190 193 197 197 180 169 169 174 176 178 176 172 172 174 171 171 173 170 172 176 178 182 183 188 195 201 202 195 191 190 187 186 182 176 177 181 185 188 192 198 203 209 210 208 212 211 212 207 207 212 201 191 208 227 222 210 191 137 51 55 103 123 113 65 56 39 21
201 204 202 202 205 204 196 194 195 192 189 186 187 190 192 193 191 189 188 194 198 191 178 173 174 177 179 181 180 178 182 182 177 176 174 173 182 190 187 185 185 187 193 200 203 200 197 196 191 188 183 180 182 186 188 186 184 191 193 197 200 205 212 208 212 208 209 213 202 208 235 226 216 208 203 170 124 56 87 130 156 160 128 67 62
212 205 202 203 205 201 193 194 194 190 187 185 187 190 194 195 191 188 188 193 195 187 180 177 175 177 181 183 183 186 187 186 186 186 185 188 196 201 195 191 194 194 198 202 201 200 195 195 196 195 189 184 189 193 193 187 182 186 185 186 189 195 202 201 205 207 211 212 201 217 220 206 209 213 210 185 148 96 84 104 145 156 141 108 108
214 211 210 207 205 200 194 194 196 191 186 186 188 190 195 195 190 186 183 183 183 179 177 175 175 180 183 186 188 190 191 192 196 197 198 202 204 203 198 197 205 207 207 204 198 195 191 190 196 200 195 186 193 197 194 189 185 186 185 185 184 185 191 195 198 203 211 207 195 207 207 201 213 217 203 181 168 148 125 99 112 129 132 126 119
216 216 217 214 209 200 194 196 199 194 187 188 188 190 194 192 186 179 175 173 169 167 170 173 178 185 188 189 191 194 197 202 205 206 204 207 205 200 197 201 215 219 211 206 201 196 191 191 194 199 197 186 187 195 192 189 188 186 188 185 184 187 190 195 196 197 206 202 198 204 202 206 211 207 192 178 181 173 153 153 109 110 122 130 124
220 218 217 217 213 200 194 198 200 194 189 189 186 189 192 189 181 176 174 171 166 164 169 178 183 187 189 191 195 200 205 210 212 212 207 205 206 200 199 206 218 220 213 210 210 205 201 201 196 193 197 190 183 187 190 191 190 188 191 186 184 189 191 194 192 189 193 195 200 204 200 212 212 200 190 179 184 180 156 148 105 95 105 118 120
224 222 217 216 214 201 194 198 198 193 189 186 185 188 191 188 182 177 172 169 168 168 172 179 183 187 191 195 202 208 210 212 212 211 209 206 206 202 203 208 213 213 210 212 214 214 209 204 198 191 196 196 182 181 192 196 195 188 186 185 181 184 189 193 191 188 191 195 201 207 214 219 212 199 189 182 192 189 167 152 113 89 92 101 112
225 224 218 216 218 206 196 199 197 191 188 186 185 189 193 190 184 176 169 167 169 170 171 177 184 189 194 199 207 212 213 213 208 205 207 205 201 201 205 206 205 205 206 208 207 209 207 197 194 189 188 192 186 183 187 194 203 194 183 182 180 179 186 192 195 198 202 205 205 211 225 226 214 201 187 182 203 199 181 179 137 98 92 94 100
224 225 220 217 220 211 201 202 198 190 189 188 187 191 194 190 184 175 169 168 169 169 170 179 188 193 197 202 206 207 206 203 199 198 198 196 197 201 204 201 199 201 207 209 203 202 202 194 190 191 188 185 190 194 187 189 203 205 194 186 180 178 187 195 199 205 207 207 208 207 221 233 223 209 189 183 204 195 168 185 138 118 117 101 86
225 225 221 218 218 212 205 205 200 191 188 190 190 191 191 185 179 174 169 169 170 171 176 184 189 194 196 197 195 192 191 191 188 187 186 186 190 192 195 197 195 198 205 209 205 199 196 192 188 194 194 186 191 197 189 188 197 203 200 190 185 182 185 199 203 205 210 211 212 205 207 235 224 196 166 172 200 188 155 156 131 142 155 127 63
225 223 219 217 217 211 206 206 201 191 188 190 190 188 186 179 173 172 169 171 175 179 185 186 186 190 189 183 177 176 180 183 179 178 179 183 186 185 190 196 195 196 201 203 202 200 194 190 191 194 197 193 197 199 190 190 195 197 195 186 185 182 171 187 193 190 200 204 218 213 167 180 214 175 129 137 176 166 140 110 90 172 180 186 299
224 219 217 216 216 208 201 202 199 189 189 191 188 186 185 180 178 177 173 174 180 187 190 187 183 183 179 173 171 173 177 178 176 178 181 184 185 184 188 191 193 195 196 190 187 194 191 186 194 199 204 204 209 212 202 194 193 195 197 184 179 182 179 186 177 160 186 187 165 140 146 152 153 161 145 134 143 131 90 37 53 131 129 94 116
223 217 215 213 211 203 194 196 196 189 190 191 186 184 183 181 182 179 177 179 183 190 193 190 185 178 173 173 172 170 174 176 176 178 181 185 186 184 186 187 190 190 186 179 177 190 191 184 190 198 204 206 207 215 213 204 198 196 203 211 209 210 203 193 173 139 145 145 123 131 135 123 98 99 119 115 110 102 74 63 81 100 106 106 119
218 207 209 214 208 201 193 192 194 192 192 189 183 182 178 175 176 175 184 190 192 192 186 184 183 178 174 175 174 171 172 173 173 177 179 181 186 186 188 188 190 192 187 181 177 187 196 191 192 196 201 205 202 204 208 211 212 206 208 218 223 244 277 208 186 157 134 115 114 137 121 112 108 104 112 112 103 100 93 88 92 97 101 107 113
209 192 202 219 208 195 191 190 194 195 193 187 179 179 175 172 170 173 189 197 199 194 183 182 182 181 179 177 177 175 170 166 168 179 182 184 192 196 197 197 197 200 195 188 185 189 198 198 199 201 203 207 206 204 203 214 226 222 216 219 220 239 276 224 207 198 151 128 123 129 118 121 124 113 113 116 110 107 105 101 100 102 106 108 109
201 186 201 220 205 186 187 189 194 196 193 183 174 178 179 173 168 172 187 191 191 193 187 184 183 181 178 175 175 173 169 170 177 187 191 192 197 198 196 194 195 200 202 200 196 196 203 204 200 203 207 208 209 211 207 215 231 230 224 223 221 229 239 203 198 212 170 140 132 135 133 136 129 115 115 118 118 115 111 108 105 104 108 109 106
197 189 203 218 198 183 188 188 193 197 189 175 172 182 182 171 164 166 178 183 183 191 187 183 182 177 176 174 173 174 175 176 180 183 184 185 187 186 184 186 189 196 202 199 193 196 206 207 205 207 211 208 211 219 215 210 220 224 222 223 226 231 219 200 197 195 175 152 142 141 143 151 136 119 116 117 118 116 109 106 106 106 106 105 104
194 193 206 217 199 190 194 189 193 193 184 176 175 181 180 169 167 166 177 183 182 189 188 184 182 178 179 180 178 179 176 167 166 173 176 178 181 180 179 182 187 195 193 182 180 191 201 203 206 208 210 208 208 220 219 207 210 214 215 220 232 240 224 211 209 199 185 168 155 146 145 153 138 120 116 117 117 114 109 107 108 108 106 104 105